Hibbing, MN

11:16 PM CDT on May 21, 2018 (GMT -0500)
Chisholm-hibbing

Weather History for KHIB - May, 2012

Change the Weather History Date:

Thursday, May 10, 2012

  Actual Average Record
Temperature  
Mean Temperature 50 °F 49 °F  
Max Temperature 73 °F 63 °F 81 °F (2007)
Min Temperature 28 °F 34 °F 21 °F (1981)
Degree Days  
Heating Degree Days 15 16  
Month to date heating degree days 176  
Cooling Degree Days 0 0  
Month to date cooling degree days 0  
Moisture  
Dew Point 35 °F    
Average Humidity 55    
Maximum Humidity 96    
Minimum Humidity 24    
Precipitation  
Precipitation 0.00 in 0.08 in 1.52 in (1985)
Month to date precipitation 0.78  
Sea Level Pressure  
Sea Level Pressure 29.89 in    
Wind  
Wind Speed 4 mph (SSW)    
Max Wind Speed 12 mph    
Max Gust Speed 20 mph    
Visibility 10 miles    
Events      
T = Trace of Precipitation, MM = Missing Value Source: NWS Daily Summary

Daily Weather History Graph

Daily Weather History Graph

Search for Another Location

Airport or City:

Astronomy

May. 10, 2012 Rise Set
Actual Time 5:40 AM CDT 8:35 PM CDT
Civil Twilight 5:04 AM CDT 9:11 PM CDT
Nautical Twilight 4:19 AM CDT 9:57 PM CDT
Astronomical Twilight 3:24 AM CDT 10:53 PM CDT
Moon 12:36 AM CDT (5/10) 10:05 AM CDT (5/10)
Length of Visible Light 16h 06m
Length of Day
14h 55m
Waning Gibbous, 73% of the Moon is Illuminated
May 10
Waning Gibbous
May 12
Last Quarter
May 20
New
May 28
First Quarter
Jun 4
Full

Hourly Weather History & Observations

Time (CDT) Temp. Dew Point Humidity Pressure Visibility Wind Dir Wind Speed Gust Speed Precip Events Conditions
12:53 AM 34.0 °F 32.0 °F 92% 29.94 in 10.0 mi Calm Calm - N/A   Clear
1:53 AM 34.0 °F 32.0 °F 92% 29.93 in 10.0 mi Calm Calm - N/A   Clear
2:53 AM 30.9 °F 30.0 °F 96% 29.94 in 10.0 mi Calm Calm - N/A   Clear
3:53 AM 30.9 °F 30.0 °F 96% 29.94 in 10.0 mi Calm Calm - N/A   Clear
4:53 AM 28.9 °F 28.0 °F 96% 29.95 in 10.0 mi Calm Calm - N/A   Clear
5:53 AM 28.9 °F 28.0 °F 96% 29.94 in 10.0 mi Calm Calm - N/A   Clear
6:53 AM 35.1 °F 32.0 °F 89% 29.95 in 10.0 mi Calm Calm - N/A   Clear
7:53 AM 45.0 °F 37.0 °F 74% 29.95 in 10.0 mi Calm Calm - N/A   Clear
8:53 AM 54.0 °F 39.0 °F 57% 29.96 in 10.0 mi SW 3.5 mph - N/A   Clear
9:53 AM 61.0 °F 37.9 °F 42% 29.94 in 10.0 mi WSW 8.1 mph 18.4 mph N/A   Clear
10:53 AM 63.0 °F 37.0 °F 38% 29.93 in 10.0 mi SW 9.2 mph - N/A   Clear
11:53 AM 64.9 °F 37.0 °F 36% 29.91 in 10.0 mi SW 11.5 mph 18.4 mph N/A   Clear
12:53 PM 66.9 °F 35.1 °F 31% 29.89 in 10.0 mi SW 10.4 mph 16.1 mph N/A   Clear
1:53 PM 69.1 °F 37.0 °F 31% 29.87 in 10.0 mi South 8.1 mph - N/A   Clear
2:53 PM 70.0 °F 34.0 °F 27% 29.85 in 10.0 mi South 10.4 mph 17.3 mph N/A   Clear
3:53 PM 72.0 °F 33.1 °F 24% 29.83 in 10.0 mi SSW 11.5 mph 19.6 mph N/A   Clear
4:53 PM 72.0 °F 35.1 °F 26% 29.83 in 10.0 mi SW 9.2 mph 19.6 mph N/A   Clear
5:53 PM 72.0 °F 36.0 °F 27% 29.83 in 10.0 mi SSW 9.2 mph - N/A   Clear
6:53 PM 70.0 °F 36.0 °F 29% 29.82 in 10.0 mi SSW 10.4 mph 19.6 mph N/A   Clear
7:53 PM 66.9 °F 36.0 °F 32% 29.82 in 10.0 mi SSW 8.1 mph - N/A   Clear
8:53 PM 63.0 °F 36.0 °F 37% 29.82 in 10.0 mi South 5.8 mph - N/A   Clear
9:53 PM 59.0 °F 37.0 °F 44% 29.84 in 10.0 mi South 5.8 mph - N/A   Clear
10:53 PM 59.0 °F 37.9 °F 46% 29.83 in 10.0 mi South 6.9 mph - N/A   Clear
11:53 PM 52.0 °F 37.9 °F 59% 29.83 in 10.0 mi South 5.8 mph - N/A   Clear